Flag Weather past 2 weeks in Firozpur, Punjab, India

Now
52 °F

Scattered clouds.


Feels Like: 52 °F
Forecast: 59 / 82 °F
Wind: No wind

Location: Lahore Airport

Current Time: Nov 28, 2014 at 8:40:05 AM

Latest Report: Nov 28, 2014 at 7:55 AM


Visibility: 1 mi

Pressure: 29.95 "Hg

Humidity: 82%

Dew point: 46 °F

Location of FirozpurLocation

Historic Weather in Firozpur — Graph

°F

Firozpur temperature yesterday

Maximum temperature yesterday: 73 °F (at 4:25 PM)
Minimum temperature yesterday: 50 °F (at 5:25 AM)
Average temperature yesterday: 61 °F

Past Weeks' High & Low Weather Summary

 TemperatureHumidityPressure
High82 °F (Nov 13, 3:00 PM)94% (Nov 16, 6:30 AM)30.12 "Hg (Nov 16, 6:30 AM)
Low48 °F (Nov 20, 7:30 AM)20% (Nov 13, 3:00 PM)29.83 "Hg (Nov 26, 2:29 PM)
Average64 °F60%29.99 "Hg
* Reported Nov 13 6:55 AM — Nov 28 7:25 AM, Firozpur, Weather by CustomWeather, © 2014

Note: Actual official high and low records may vary slightly from our data, if they occured in-between our weather recording intervals... More about our weather records

Advertising

Firozpur weather history for previous 24 hours

 ConditionsComfort  
Time TempWeatherWind HumidityBarometerVisibility
7:25 AM
Nov 28
50 °FPassing clouds.3 mph88%29.95 "Hg1 mi
6:55 AM52 °FFog.5 mph88%29.95 "Hg1 mi
6:25 AM52 °FFog.7 mph88%29.92 "Hg1 mi
5:30 AM52 °FFog.5 mph88%29.92 "Hg1 mi
4:55 AM54 °FFog.6 mph82%29.92 "Hg1 mi
4:25 AM54 °FFog.7 mph82%29.92 "Hg1 mi
3:55 AM55 °FClear.7 mph77%29.92 "Hg1 mi
3:25 AM55 °FClear.6 mph77%29.92 "Hg1 mi
2:56 AM55 °FClear.5 mph77%29.92 "Hg2 mi
1:55 AM57 °FClear.7 mph77%29.92 "Hg2 mi
1:25 AM57 °FClear.8 mph77%29.92 "Hg2 mi
12:55 AM59 °FClear.7 mph72%29.92 "Hg2 mi
12:25 AM59 °FClear.5 mph72%29.92 "Hg2 mi
11:25 PM
Nov 27
63 °FClear.3 mph68%29.92 "Hg2 mi
10:55 PM63 °FClear.3 mph68%29.92 "Hg2 mi
10:25 PM63 °FClear.3 mph68%29.92 "Hg2 mi
9:55 PM63 °FClear.No wind64%29.92 "Hg2 mi
9:25 PM64 °FClear.5 mph60%29.92 "Hg2 mi
8:55 PM64 °FClear.3 mph60%29.89 "Hg2 mi
8:30 PM64 °FClear.6 mph60%29.89 "Hg2 mi
7:00 PM66 °FPassing clouds.5 mph56%29.89 "Hg2 mi
6:30 PM68 °FPassing clouds.7 mph53%29.89 "Hg2 mi
6:00 PM70 °FPassing clouds.6 mph50%29.86 "Hg1 mi
5:30 PM72 °FPassing clouds.5 mph47%29.86 "Hg1 mi
5:00 PM73 °FScattered clouds.3 mph44%29.86 "Hg1 mi
4:25 PM73 °FScattered clouds.6 mph44%29.86 "Hg1 mi
12:25 PM68 °FScattered clouds.7 mph56%29.92 "Hg1 mi
11:55 AM68 °FScattered clouds.7 mph56%29.92 "Hg1 mi
11:25 AM66 °FScattered clouds.6 mph60%29.92 "Hg1 mi
10:55 AM63 °FScattered clouds.8 mph64%29.92 "Hg1 mi
10:25 AM61 °FPartly sunny.7 mph68%29.92 "Hg1 mi
9:55 AM57 °FPartly sunny.6 mph77%29.92 "Hg1 mi
9:25 AM55 °FScattered clouds.6 mph77%29.92 "Hg1 mi
8:55 AM55 °FFog.No wind77%29.92 "Hg1 mi
8:25 AM54 °FFog.3 mph82%29.89 "Hg1 mi
Weather by CustomWeather, © 2014

See weather overviewHow to use our weather pages